When you browse on this site, cookies collect data to enhance your experience and personalize the content and advertising you see.
Visit our Privacy Policy to learn more. By continuing to use the site, you agree to this use of cookies and data.
  • în România
  • Lista ţărilor
  • Pe 7 zile
  • Temperatura apei
  • Hartă satelitară
  • Meteo pe hartă
  • Widget-uri
  • user-avatar
    Intrare

    Meteo pe oră la Pridorozhnyy

    Astăzi, 25 Martie, Luni

    Timp Temperatura Precipitaţii Vânt Presiune Umiditate
    00:00 -2°C° 0.8 mm 6 m/s 749 mmHg 95%
    01:00 -1°C° 1.5 mm 5 m/s 748 mmHg 96%
    02:00 -1°C° 1.5 mm 5 m/s 747 mmHg 97%
    03:00 0°C° 0 mm 4 m/s 745 mmHg 99%
    04:00 0°C° 0.5 mm 5 m/s 744 mmHg 98%
    05:00 -1°C° 0.5 mm 5 m/s 743 mmHg 96%
    06:00 -1°C° 0.5 mm 5 m/s 742 mmHg 95%
    07:00 -2°C° 0.1 mm 6 m/s 743 mmHg 94%
    08:00 -2°C° 0.1 mm 6 m/s 743 mmHg 94%
    09:00 -2°C° 0.1 mm 7 m/s 743 mmHg 94%
    10:00 -2°C° 0.2 mm 7 m/s 743 mmHg 93%
    11:00 -2°C° 0.2 mm 8 m/s 744 mmHg 92%
    12:00 -2°C° 0.2 mm 8 m/s 744 mmHg 92%
    13:00 -2°C° 0.3 mm 8 m/s 745 mmHg 91%
    14:00 -2°C° 0.3 mm 8 m/s 746 mmHg 90%
    15:00 -2°C° 0.3 mm 8 m/s 746 mmHg 89%
    16:00 -2°C° 0.2 mm 7 m/s 747 mmHg 89%
    17:00 -2°C° 0.2 mm 6 m/s 748 mmHg 89%
    18:00 -2°C° 0.2 mm 6 m/s 749 mmHg 89%
    19:00 -2°C° 0.1 mm 6 m/s 749 mmHg 88%
    20:00 -3°C° 0.1 mm 6 m/s 750 mmHg 87%
    21:00 -3°C° 0.1 mm 6 m/s 751 mmHg 86%
    22:00 -2°C° 0 mm 5 m/s 751 mmHg 87%
    23:00 -4°C° 0 mm 5 m/s 752 mmHg 88%

    Mâine, 26 Martie, Marţi

    Timp Temperatura Precipitaţii Vânt Presiune Umiditate
    00:00 -4°C° 0 mm 5 m/s 753 mmHg 89%
    01:00 -5°C° 0 mm 5 m/s 753 mmHg 89%
    02:00 -4°C° 0 mm 4 m/s 754 mmHg 90%
    03:00 -5°C° 0 mm 4 m/s 755 mmHg 90%
    04:00 -5°C° 0 mm 4 m/s 755 mmHg 91%
    05:00 -7°C° 0 mm 4 m/s 756 mmHg 92%
    06:00 -6°C° 0 mm 3 m/s 756 mmHg 92%
    07:00 -5°C° 0 mm 3 m/s 757 mmHg 91%
    08:00 -4°C° 0 mm 4 m/s 757 mmHg 90%
    09:00 -3°C° 0 mm 4 m/s 758 mmHg 89%
    10:00 -3°C° 0 mm 4 m/s 758 mmHg 91%
    11:00 -2°C° 0 mm 4 m/s 758 mmHg 92%
    12:00 -2°C° 0 mm 4 m/s 758 mmHg 94%
    13:00 -1°C° 0 mm 4 m/s 758 mmHg 92%
    14:00 -1°C° 0 mm 4 m/s 758 mmHg 90%
    15:00 -1°C° 0 mm 4 m/s 758 mmHg 89%
    16:00 -1°C° 0.1 mm 5 m/s 757 mmHg 87%
    17:00 -2°C° 0.1 mm 6 m/s 757 mmHg 86%
    18:00 -2°C° 0.1 mm 6 m/s 756 mmHg 85%
    19:00 -2°C° 0.5 mm 7 m/s 756 mmHg 87%
    20:00 -1°C° 0.5 mm 8 m/s 755 mmHg 90%
    21:00 -1°C° 0.5 mm 8 m/s 755 mmHg 92%
    22:00 -1°C° 0.1 mm 7 m/s 755 mmHg 94%
    23:00 -1°C° 0.1 mm 7 m/s 756 mmHg 95%

    Poimâine, 27 Martie, Miercuri

    Timp Temperatura Precipitaţii Vânt Presiune Umiditate
    00:00 -1°C° 0.1 mm 6 m/s 756 mmHg 97%
    01:00 0°C° 0.2 mm 5 m/s 756 mmHg 97%
    02:00 0°C° 0.2 mm 4 m/s 756 mmHg 98%
    03:00 0°C° 0.2 mm 4 m/s 756 mmHg 99%
    04:00 +1°C° 0.5 mm 3 m/s 757 mmHg 99%
    05:00 +1°C° 0.5 mm 3 m/s 757 mmHg 99%
    06:00 +1°C° 0.5 mm 3 m/s 757 mmHg 99%
    07:00 +1°C° 0.8 mm 3 m/s 757 mmHg 98%
    08:00 +1°C° 0.8 mm 3 m/s 757 mmHg 98%
    09:00 0°C° 0.8 mm 4 m/s 757 mmHg 97%
    10:00 0°C° 0.2 mm 4 m/s 757 mmHg 97%
    11:00 0°C° 0.2 mm 4 m/s 757 mmHg 96%
    12:00 0°C° 0.2 mm 5 m/s 757 mmHg 96%
    13:00 0°C° 0 mm 5 m/s 757 mmHg 95%
    14:00 0°C° 0 mm 5 m/s 757 mmHg 94%
    15:00 0°C° 0 mm 5 m/s 757 mmHg 93%
    16:00 0°C° 0 mm 4 m/s 757 mmHg 92%
    17:00 0°C° 0 mm 3 m/s 757 mmHg 92%
    18:00 0°C° 0 mm 3 m/s 757 mmHg 91%
    19:00 +1°C° 0.1 mm 2 m/s 757 mmHg 91%
    20:00 -1°C° 0.1 mm 2 m/s 758 mmHg 90%
    21:00 -1°C° 0.1 mm 2 m/s 758 mmHg 90%
    22:00 -1°C° 0.2 mm 2 m/s 758 mmHg 90%
    23:00 +1°C° 0.2 mm 1 m/s 758 mmHg 90%

    28 Martie, Joi

    Timp Temperatura Precipitaţii Vânt Presiune Umiditate
    00:00 +1°C° 0.2 mm 1 m/s 757 mmHg 90%
    01:00 +1°C° 0.2 mm 1 m/s 757 mmHg 90%
    02:00 +1°C° 0.2 mm 1 m/s 757 mmHg 90%
    03:00 +1°C° 0.2 mm 1 m/s 757 mmHg 90%
    04:00 +1°C° 0.2 mm 1 m/s 757 mmHg 92%
    05:00 +1°C° 0.2 mm 1 m/s 757 mmHg 93%
    06:00 +1°C° 0.2 mm 1 m/s 757 mmHg 94%
    07:00 -1°C° 0.4 mm 2 m/s 757 mmHg 95%
    08:00 -1°C° 0.4 mm 2 m/s 756 mmHg 96%
    09:00 -1°C° 0.4 mm 2 m/s 756 mmHg 96%
    10:00 +1°C° 0.2 mm 2 m/s 756 mmHg 97%
    11:00 0°C° 0.2 mm 3 m/s 756 mmHg 97%
    12:00 0°C° 0.2 mm 3 m/s 756 mmHg 98%
    13:00 0°C° 0.2 mm 3 m/s 756 mmHg 98%
    14:00 0°C° 0.2 mm 3 m/s 755 mmHg 98%
    15:00 0°C° 0.2 mm 3 m/s 755 mmHg 98%
    16:00 0°C° 0.5 mm 3 m/s 755 mmHg 97%
    17:00 0°C° 0.5 mm 3 m/s 755 mmHg 96%
    18:00 0°C° 0.5 mm 3 m/s 755 mmHg 95%
    19:00 -1°C° 0.8 mm 4 m/s 755 mmHg 95%
    20:00 -1°C° 0.8 mm 4 m/s 756 mmHg 94%
    21:00 -1°C° 0.8 mm 4 m/s 756 mmHg 93%
    22:00 -2°C° 0.5 mm 5 m/s 756 mmHg 93%
    23:00 -2°C° 0.5 mm 5 m/s 756 mmHg 92%

    29 Martie, Vineri

    Timp Temperatura Precipitaţii Vânt Presiune Umiditate
    00:00 -2°C° 0.5 mm 5 m/s 755 mmHg 91%
    01:00 -2°C° 0.1 mm 5 m/s 756 mmHg 92%
    02:00 -2°C° 0.1 mm 5 m/s 756 mmHg 92%
    03:00 -3°C° 0.1 mm 4 m/s 756 mmHg 92%
    04:00 -3°C° 0.1 mm 4 m/s 756 mmHg 92%
    05:00 -3°C° 0.1 mm 4 m/s 756 mmHg 93%
    06:00 -3°C° 0.1 mm 4 m/s 756 mmHg 94%
    07:00 -3°C° 0.1 mm 4 m/s 756 mmHg 93%
    08:00 -3°C° 0.1 mm 4 m/s 756 mmHg 93%
    09:00 -2°C° 0.1 mm 4 m/s 756 mmHg 92%
    10:00 -1°C° 0.1 mm 3 m/s 757 mmHg 94%
    11:00 -1°C° 0.1 mm 3 m/s 757 mmHg 95%
    12:00 -1°C° 0.1 mm 3 m/s 757 mmHg 96%
    13:00 -1°C° 0.1 mm 3 m/s 757 mmHg 95%
    14:00 0°C° 0.1 mm 3 m/s 757 mmHg 94%
    15:00 0°C° 0.1 mm 3 m/s 757 mmHg 93%
    16:00 -1°C° 0 mm 3 m/s 757 mmHg 92%
    17:00 -1°C° 0 mm 2 m/s 758 mmHg 91%
    18:00 -1°C° 0 mm 2 m/s 758 mmHg 89%
    19:00 -2°C° 0 mm 2 m/s 758 mmHg 89%
    20:00 -2°C° 0 mm 2 m/s 759 mmHg 89%
    21:00 -3°C° 0 mm 2 m/s 759 mmHg 89%
    22:00 -3°C° 0 mm 2 m/s 759 mmHg 89%
    23:00 -3°C° 0 mm 2 m/s 759 mmHg 89%

    30 Martie, Sâmbătă

    Timp Temperatura Precipitaţii Vânt Presiune Umiditate
    00:00 -3°C° 0 mm 2 m/s 759 mmHg 90%
    01:00 -3°C° 0 mm 2 m/s 759 mmHg 89%
    02:00 -4°C° 0 mm 2 m/s 760 mmHg 89%
    03:00 -2°C° 0 mm 1 m/s 760 mmHg 89%
    04:00 -3°C° 0 mm 1 m/s 760 mmHg 88%
    05:00 -3°C° 0 mm 1 m/s 760 mmHg 88%
    06:00 -3°C° 0 mm 1 m/s 760 mmHg 87%
    07:00 -2°C° 0 mm 1 m/s 761 mmHg 86%
    08:00 -1°C° 0 mm 1 m/s 761 mmHg 85%
    09:00 -2°C° 0 mm 2 m/s 761 mmHg 84%
    10:00 -1°C° 0 mm 2 m/s 761 mmHg 86%
    11:00 -1°C° 0 mm 3 m/s 761 mmHg 88%
    12:00 0°C° 0 mm 3 m/s 761 mmHg 90%
    13:00 0°C° 0 mm 3 m/s 761 mmHg 87%
    14:00 -1°C° 0 mm 4 m/s 761 mmHg 84%
    15:00 -1°C° 0 mm 4 m/s 761 mmHg 81%
    16:00 -2°C° 0 mm 4 m/s 761 mmHg 83%
    17:00 -3°C° 0 mm 4 m/s 760 mmHg 85%
    18:00 -4°C° 0 mm 3 m/s 760 mmHg 88%
    19:00 -4°C° 0 mm 4 m/s 761 mmHg 88%
    20:00 -4°C° 0 mm 4 m/s 761 mmHg 89%
    21:00 -4°C° 0 mm 4 m/s 761 mmHg 90%
    22:00 -4°C° 0 mm 4 m/s 761 mmHg 90%
    23:00 -4°C° 0 mm 4 m/s 761 mmHg 90%
    Arată mai mult